Location: Unspecified
(0.0000°N, 0.0000°E)
Time: 21:25:19
(UTC+00:00)

deb Kosmos-1275 - Pass Details

Date: 10 March 2026
Orbit: 924 x 994 km, 82.9° (Epoch: 11 April)

Event Time Altitude Azimuth Distance (km) Brightness Sun altitude
Rises 19:44:58 0° 320° (NW) 3,625 ? -23.6°
Reaches altitude 10° 19:48:46 10° 297° (WNW) 2,698 ? -24.6°
Maximum altitude 19:51:51 14° 266° (W) 2,417 ? -25.4°
Drops below altitude 10° 19:54:57 10° 236° (SW) 2,726 ? -26.1°
Sets 19:58:52 0° 212° (SSW) 3,689 ? -27.1°
